Location: Newark
(41.8083°N, 72.2500°W)
Time: 08:15:58
(UTC+00:00)

Altair - All Passes

Search period start: 03 December 2021 00:00
Search period end: 13 December 2021 00:00
Orbit: 1502 x 1682 km, 47.2° (Epoch: 02 December)

Date Brightness Start Highest point End Pass type
(mag) Time Alt. Az. Time Alt. Az. Time Alt. Az.
03 Dec - 00:12:28 10° WNW 00:21:43 65° N 00:30:50 10° E visible
03 Dec - 02:17:33 10° WNW 02:26:45 78° SSW 02:35:57 10° SE visible
03 Dec - 04:23:09 10° WNW 04:30:24 27° SW 04:37:44 10° S night (unlit)
03 Dec - 17:38:48 10° SSE 17:43:17 14° ESE 17:47:42 10° E daylight
03 Dec - 19:37:12 10° SSW 19:46:26 53° SE 19:55:21 10° ENE daylight
03 Dec - 21:41:27 10° WSW 21:50:57 76° NNW 22:00:13 10° ENE visible
03 Dec - 23:47:13 10° WNW 23:56:29 64° N 00:05:35 10° E visible
04 Dec - 01:52:22 10° WNW 02:01:36 82° SSW 02:10:49 10° SE visible
04 Dec - 03:57:48 10° WNW 04:05:21 30° SW 04:12:57 10° S visible
04 Dec - 17:14:48 10° SE 17:18:15 12° ESE 17:21:39 10° E daylight
04 Dec - 19:12:10 10° SSW 19:21:18 49° SE 19:30:08 10° ENE daylight
04 Dec - 21:16:12 10° WSW 21:25:45 78° NNW 21:35:02 10° ENE daylight
04 Dec - 23:21:57 10° WNW 23:31:15 63° N 23:40:21 10° E visible
05 Dec - 01:27:10 10° WNW 01:36:27 86° SSW 01:45:39 10° ESE visible
05 Dec - 03:32:29 10° WNW 03:40:17 33° SW 03:48:09 10° SSE visible
05 Dec - 16:51:30 10° SE 16:53:14 11° ESE 16:54:57 10° ESE daylight
05 Dec - 18:47:10 10° SSW 18:56:12 46° SE 19:04:55 10° ENE daylight
05 Dec - 20:50:57 10° WSW 21:00:33 81° NNW 21:09:51 10° ENE daylight
05 Dec - 22:56:41 10° WNW 23:06:00 63° N 23:15:06 10° E visible
06 Dec - 01:01:59 10° WNW 01:11:17 90° SSW 01:20:29 10° ESE visible
06 Dec - 03:07:11 10° WNW 03:15:14 36° SW 03:23:18 10° SSE visible
06 Dec - 18:22:11 10° SSW 18:31:05 42° SE 18:39:42 10° ENE daylight
06 Dec - 20:25:42 10° WSW 20:35:20 84° NNW 20:44:40 10° ENE daylight
06 Dec - 22:31:25 10° W 22:40:46 63° N 22:49:53 10° E visible
07 Dec - 00:36:47 10° WNW 00:46:06 87° NNE 00:55:19 10° ESE visible
07 Dec - 02:41:55 10° WNW 02:50:09 39° SW 02:58:25 10° SSE visible
07 Dec - 17:57:15 10° SSW 18:05:59 39° SE 18:14:27 10° ENE daylight
07 Dec - 20:00:28 10° WSW 20:10:09 88° NNW 20:19:30 10° ENE daylight
07 Dec - 22:06:09 10° W 22:15:31 63° N 22:24:39 10° E visible
08 Dec - 00:11:34 10° WNW 00:20:55 83° NNE 00:30:08 10° ESE visible
08 Dec - 02:16:40 10° WNW 02:25:05 42° SW 02:33:30 10° SSE visible
08 Dec - 17:32:19 10° SSW 17:40:54 36° SE 17:49:12 10° ENE daylight
08 Dec - 19:35:14 10° WSW 19:44:57 89° SSE 19:54:20 10° ENE daylight
08 Dec - 21:40:51 10° W 21:50:16 63° N 21:59:25 10° ENE visible
08 Dec - 23:46:21 10° WNW 23:55:44 80° NNE 00:04:56 10° ESE visible
09 Dec - 01:51:25 10° WNW 02:00:00 46° SW 02:08:34 10° SSE visible
09 Dec - 04:02:14 10° WSW 04:02:50 10° WSW 04:03:25 10° SW night (unlit)
09 Dec - 17:07:26 10° SSW 17:15:48 33° SE 17:23:55 10° ENE daylight
09 Dec - 19:10:02 10° WSW 19:19:46 85° SSE 19:29:09 10° ENE daylight
09 Dec - 21:15:34 10° W 21:25:01 64° N 21:34:12 10° ENE daylight
09 Dec - 23:21:09 10° WNW 23:30:32 77° NNE 23:39:44 10° ESE visible
10 Dec - 01:26:11 10° WNW 01:34:55 49° SW 01:43:35 10° SSE visible
10 Dec - 03:34:50 10° WSW 03:37:49 12° WSW 03:40:49 10° SW visible
10 Dec - 16:42:35 10° S 16:50:43 30° SE 16:58:36 10° ENE daylight
10 Dec - 18:44:50 10° SW 18:54:35 81° SSE 19:03:59 10° ENE daylight
10 Dec - 20:50:16 10° W 20:59:47 65° N 21:08:59 10° ENE daylight
10 Dec - 22:55:55 10° WNW 23:05:20 75° NNE 23:14:31 10° ESE visible
11 Dec - 01:00:57 10° WNW 01:09:49 53° SW 01:18:36 10° SE visible
11 Dec - 03:08:43 10° W 03:12:49 14° WSW 03:16:56 10° SSW visible
11 Dec - 16:17:48 10° S 16:25:38 28° SE 16:33:16 10° ENE daylight
11 Dec - 18:19:39 10° SW 18:29:25 77° SSE 18:38:48 10° ENE daylight
11 Dec - 20:24:58 10° W 20:34:32 66° N 20:43:46 10° ENE daylight
11 Dec - 22:30:41 10° WNW 22:40:07 73° NNE 22:49:18 10° E visible
12 Dec - 00:35:44 10° WNW 00:44:43 57° SW 00:53:36 10° SE visible
12 Dec - 02:42:53 10° W 02:47:49 16° SW 02:52:45 10° SSW visible
12 Dec - 15:53:02 10° S 16:00:34 25° SE 16:07:54 10° ENE daylight
12 Dec - 17:54:28 10° SW 18:04:14 73° SSE 18:13:39 10° ENE daylight
12 Dec - 19:59:40 10° W 20:09:17 67° N 20:18:34 10° ENE daylight
12 Dec - 22:05:26 10° WNW 22:14:54 71° NNE 22:24:05 10° E visible
